Printer-friendly version

IAU Minor Planet Center

Minor Planet Center

MPEC 2005-G77 : 2005 GX110

The following Minor Planet Electronic Circular may be linked-to from your own Web pages, but must not otherwise be redistributed electronically.


Read MPEC 2005-G76 Read MPEC 2005-G78


M.P.E.C. 2005-G77                                Issued 2005 Apr. 12, 11:29 UT

     The Minor Planet Electronic Circulars contain information on unusual
         minor planets and routine data on comets.  They are published
   on behalf of Commission 20 of the International Astronomical Union by the
          Minor Planet Center, Smithsonian Astrophysical Observatory,
                          Cambridge, MA 02138, U.S.A.

                  Supported in part by the Brinson Foundation
             Prepared using the Tamkin Foundation Computer Network

                              MPC@CFA.HARVARD.EDU
          URL http://cfa-www.harvard.edu/iau/mpc.html  ISSN 1523-6714

                                  2005 GX110

Observations:
     K05GB0X* C2005 04 10.35626 14 17 57.24 -10 25 35.8          20.6 R EG077G96
     K05GB0X  C2005 04 10.36288 14 17 55.14 -10 26 47.2          19.6 R EG077G96
     K05GB0X  C2005 04 10.36950 14 17 53.01 -10 27 57.7          20.1 R EG077G96
     K05GB0X  C2005 04 10.37612 14 17 50.93 -10 29 07.6          19.8 R EG077G96
     K05GB0X  C2005 04 10.42684 14 17 34.82 -10 38 08.2          19.9 R EG077G96
     K05GB0X  C2005 04 10.42749 14 17 34.62 -10 38 15.5          20.7 R EG077G96
     K05GB0X  C2005 04 10.42815 14 17 34.37 -10 38 22.7          19.1 R EG077G96
     K05GB0X  C2005 04 10.42880 14 17 34.21 -10 38 29.0          19.8 R EG077G96
     K05GB0X  C2005 04 11.05068 14 14 33.38 -12 28 43.0          20.5 R EG077J95
     K05GB0X  C2005 04 11.06956 14 14 27.57 -12 32 02.2          20.2 R EG077J95
     K05GB0X  C2005 04 11.36638 14 12 59.83 -13 23 46.2          19.7 R EG077G96
     K05GB0X  C2005 04 11.37998 14 12 55.48 -13 26 07.7          20.3 R EG077G96
     K05GB0X  C2005 04 12.27218 14 08 32.99 -15 59 48.6          21.2 R EG077651
     K05GB0X  C2005 04 12.27670 14 08 31.75 -16 00 36.1          20.9 R EG077651
     K05GB0X  C2005 04 12.27815 14 08 31.41 -16 00 51.0          20.9 R EG077651

Observer details:
651 Grasslands Observatory, Tucson.  Observer J. E. McGaha.  0.62-m f/5.1
    Newtonian reflector + CCD.
G96 Mt. Lemmon Survey.  Observer A. Grauer.  Measurers E. C. Beshore,
    C. M. Casey, E. J. Christensen, G. J. Garradd, A. Grauer, R. E. Hill,
    S. M. Larson, R. H. McNaught, A. D. Grauer.  1.5-m reflector + CCD.
J95 Great Shefford.  Observer P. Birtwhistle.  0.30-m f/6.3 Schmidt-Cassegrain
    + CCD.

Orbital elements:
2005 GX110
Epoch 2005 Mar. 31.0 TT = JDT 2453460.5                 MPC
M   8.31748              (2000.0)            P               Q
n   0.49030017     Peri.  152.42275     -0.98429279     -0.10350692
a   1.5928004      Node    23.01790     -0.02150838     -0.73375579
e   0.3150087      Incl.   21.45414     +0.17522871     -0.67148250
P   2.01           H   24.2           G   0.15
From 15 observations 2005 Apr. 10-12.

Ephemeris:
2005 GX110               a,e,i = 1.59, 0.32, 21                  q = 1.0911
Date    TT    R. A. (2000) Decl.     Delta      r     Elong.  Phase     V
2005 04 10    14 19.69   -09 21.0    0.121    1.119   163.8    14.5    20.7
2005 04 12    14 09.88   -15 12.4    0.124    1.123   166.5    12.0    20.6
2005 04 14    13 59.91   -20 43.8    0.128    1.127   166.4    12.1    20.7
2005 04 16    13 49.91   -25 47.6    0.133    1.132   163.9    14.2    20.9
2005 04 18    13 40.00   -30 19.6    0.140    1.137   160.4    17.2    21.1
2005 04 20    13 30.32   -34 18.7    0.148    1.142   156.6    20.4    21.4
2005 04 22    13 20.98   -37 45.9    0.157    1.147   153.0    23.4    21.6
2005 04 24    13 12.07   -40 43.6    0.167    1.153   149.6    26.2    21.8
2005 04 26    13 03.69   -43 14.9    0.178    1.159   146.6    28.6    22.0
2005 04 28    12 55.89   -45 23.3    0.189    1.165   143.9    30.7    22.2
2005 04 30    12 48.74   -47 11.8    0.201    1.171   141.4    32.5    22.4

Timothy B. Spahr             (C) Copyright 2005 MPC           M.P.E.C. 2005-G77

Read MPEC 2005-G76 Read MPEC 2005-G78


Our Web policy. Index to the CBAT/MPC/ICQ pages.


Valid HTML 4.01!